Weather in Kuryayevo

Russia / Tver Oblast     57°02′59″N   33°05′34″E
temp.,
°C
wind,
m/s
gust,
m/s
humid.,
%
clouds,
%
prec.,
mm/h
press.,
hPa
HPBL,
m
27 january, thu
thu2700:00−12ssw2797100 0.0 1016142
03:00−10ssw31095100 0.0 1015286
06:00−11s31193100 0.0 1013275
09:00−12s4129478 0.0 1011317
12:00−9s5139398 0.0 1009405
15:00−7s51293100 0.3 1007490
18:00−7s4119398 0.2 1005423
21:00−7s41394100 0.3 1003443
28 january, fri
fri2800:00−6sse51493100 0.1 1001466
03:00−5sse51495100 0.4 999551
06:00−4sse51495100 1.3 996609
09:00−4sse4129496 2.3 996511
12:00−2sse499592 0.1 996410
15:00−1sse3796100 0.2 996437
18:00−1se3798100 0.5 997348
21:00−3ese269885 0.7 998152
29 january, sat
sat2900:00−4e1398100 0.3 99968
03:00−5nne119898 0.7 100118
06:00−4nw4996100 0.3 1002360
09:00−6nw41193100 0.9 1005493
12:00−6nw4993100 0.1 1007466
15:00−7wnw3794100 0.1 1007432
18:00−8wnw3591100 0.1 1007324
21:00−8sw3590100 0.1 1005300
30 january, sun
sun3000:00−9s4119399 0.0 1002319
03:00−8sse51689100 0.0 996477
06:00−6sse71894100 0.6 988817
09:00−5sse71694100 3.1 983887
12:00−3s61593100 1.6 980754
15:00−1s51294100 1.8 979685
18:00−1s399299 0.3 979562
21:00−1s379699 0.4 981370
31 january, mon
mon3100:00−3sse2696100 0.1 982205
03:00−3sse1498100 0.1 983117
06:00−5ese1198100 0.0 98432
09:00−11se11100100 0.0 98610
12:00−4w119769 0.0 987105
15:00−2wnw1395100 0.3 988342
18:00−6wnw3895100 0.6 991244
21:00−7wnw4995100 0.8 992399